• In Belgien
  • Länderverzeichnis
  • Für 7 Tage
  • Wassertemperatur
  • Satellitenkarten
  • Wetterkarte
  • Widgets
  • user-avatar
    Anmelden

    Stündliche Wetter Etschmiadsin

    Heute, 22 Juni, Freitag

    Zeit Temperatur Niederschläge Wind Luftdruck Luftfeuchtigkeit
    00:00 +20°C° 0,3 mm 2 m/S 685 mmHg 74%
    01:00 +20°C° 0,2 mm 2 m/S 685 mmHg 75%
    02:00 +20°C° 0,2 mm 2 m/S 685 mmHg 75%
    03:00 +20°C° 0 mm 1 m/S 685 mmHg 75%
    04:00 +21°C° 0,3 mm 1 m/S 685 mmHg 74%
    05:00 +20°C° 0,3 mm 2 m/S 685 mmHg 73%
    06:00 +21°C° 0,3 mm 2 m/S 685 mmHg 72%
    07:00 +23°C° 0,5 mm 2 m/S 685 mmHg 67%
    08:00 +24°C° 0,5 mm 2 m/S 685 mmHg 62%
    09:00 +26°C° 0 mm 2 m/S 685 mmHg 57%
    10:00 +27°C° 0,7 mm 2 m/S 685 mmHg 54%
    11:00 +28°C° 0,7 mm 2 m/S 685 mmHg 50%
    12:00 +29°C° 0,7 mm 2 m/S 685 mmHg 47%
    13:00 +29°C° 0,7 mm 2 m/S 684 mmHg 45%
    14:00 +30°C° 0,7 mm 2 m/S 684 mmHg 44%
    15:00 +30°C° 0,7 mm 2 m/S 684 mmHg 42%
    16:00 +30°C° 0,6 mm 2 m/S 684 mmHg 44%
    17:00 +29°C° 0,6 mm 2 m/S 684 mmHg 46%
    18:00 +29°C° 0,6 mm 2 m/S 684 mmHg 48%
    19:00 +27°C° 0,4 mm 2 m/S 684 mmHg 53%
    20:00 +25°C° 0,4 mm 2 m/S 683 mmHg 58%
    21:00 +23°C° 0,4 mm 2 m/S 683 mmHg 62%
    22:00 +21°C° 0,2 mm 2 m/S 683 mmHg 64%
    23:00 +21°C° 0,2 mm 2 m/S 683 mmHg 66%

    Morgen, 23 Juni, Samstag

    Zeit Temperatur Niederschläge Wind Luftdruck Luftfeuchtigkeit
    00:00 +20°C° 0,2 mm 2 m/S 683 mmHg 69%
    01:00 +20°C° 0,1 mm 2 m/S 683 mmHg 70%
    02:00 +19°C° 0,1 mm 2 m/S 683 mmHg 71%
    03:00 +19°C° 0,1 mm 2 m/S 683 mmHg 71%
    04:00 +20°C° 0 mm 2 m/S 683 mmHg 70%
    05:00 +22°C° 0 mm 1 m/S 684 mmHg 68%
    06:00 +22°C° 0 mm 1 m/S 684 mmHg 66%
    07:00 +24°C° 0,1 mm 1 m/S 684 mmHg 59%
    08:00 +26°C° 0,1 mm 2 m/S 684 mmHg 53%
    09:00 +27°C° 0,1 mm 2 m/S 684 mmHg 46%
    10:00 +28°C° 0,3 mm 2 m/S 684 mmHg 43%
    11:00 +30°C° 0,3 mm 2 m/S 684 mmHg 40%
    12:00 +31°C° 0,3 mm 2 m/S 684 mmHg 37%
    13:00 +31°C° 0,3 mm 2 m/S 683 mmHg 36%
    14:00 +31°C° 0,3 mm 2 m/S 683 mmHg 36%
    15:00 +32°C° 0,3 mm 2 m/S 683 mmHg 35%
    16:00 +31°C° 0,4 mm 2 m/S 683 mmHg 38%
    17:00 +30°C° 0,4 mm 2 m/S 683 mmHg 41%
    18:00 +30°C° 0,4 mm 2 m/S 683 mmHg 43%
    19:00 +28°C° 0,4 mm 2 m/S 683 mmHg 49%
    20:00 +26°C° 0,4 mm 2 m/S 683 mmHg 54%
    21:00 +23°C° 0,4 mm 2 m/S 684 mmHg 60%
    22:00 +23°C° 0,3 mm 2 m/S 684 mmHg 62%
    23:00 +21°C° 0,3 mm 2 m/S 684 mmHg 64%

    übermorgen, 24 Juni, Sonntag

    Zeit Temperatur Niederschläge Wind Luftdruck Luftfeuchtigkeit
    00:00 +21°C° 0,3 mm 2 m/S 684 mmHg 67%
    01:00 +20°C° 0,2 mm 2 m/S 684 mmHg 68%
    02:00 +20°C° 0,2 mm 2 m/S 684 mmHg 69%
    03:00 +19°C° 0,2 mm 2 m/S 684 mmHg 69%
    04:00 +20°C° 0 mm 2 m/S 684 mmHg 68%
    05:00 +21°C° 0 mm 2 m/S 684 mmHg 66%
    06:00 +23°C° 0 mm 2 m/S 685 mmHg 64%
    07:00 +24°C° 0 mm 2 m/S 685 mmHg 58%
    08:00 +26°C° 0 mm 1 m/S 685 mmHg 52%
    09:00 +28°C° 0 mm 1 m/S 685 mmHg 45%
    10:00 +29°C° 0 mm 2 m/S 685 mmHg 42%
    11:00 +31°C° 0 mm 2 m/S 685 mmHg 39%
    12:00 +32°C° 0 mm 2 m/S 684 mmHg 36%
    13:00 +32°C° 0,1 mm 2 m/S 684 mmHg 35%
    14:00 +34°C° 0,1 mm 2 m/S 684 mmHg 34%
    15:00 +34°C° 0,1 mm 2 m/S 684 mmHg 33%
    16:00 +34°C° 0,4 mm 3 m/S 684 mmHg 36%
    17:00 +33°C° 0,4 mm 3 m/S 684 mmHg 39%
    18:00 +31°C° 0,4 mm 3 m/S 684 mmHg 43%
    19:00 +29°C° 0,2 mm 3 m/S 684 mmHg 48%
    20:00 +27°C° 0,2 mm 3 m/S 684 mmHg 54%
    21:00 +25°C° 0,2 mm 3 m/S 685 mmHg 59%
    22:00 +24°C° 0,1 mm 3 m/S 685 mmHg 61%
    23:00 +24°C° 0,1 mm 3 m/S 685 mmHg 63%

    25 Juni, Montag

    Zeit Temperatur Niederschläge Wind Luftdruck Luftfeuchtigkeit
    00:00 +22°C° 0,1 mm 3 m/S 685 mmHg 64%
    01:00 +21°C° 0 mm 3 m/S 685 mmHg 65%
    02:00 +21°C° 0 mm 2 m/S 685 mmHg 66%
    03:00 +20°C° 0 mm 2 m/S 685 mmHg 67%
    04:00 +21°C° 0 mm 2 m/S 685 mmHg 66%
    05:00 +23°C° 0 mm 2 m/S 685 mmHg 64%
    06:00 +23°C° 0 mm 2 m/S 685 mmHg 62%
    07:00 +25°C° 0 mm 2 m/S 686 mmHg 56%
    08:00 +27°C° 0 mm 2 m/S 686 mmHg 49%
    09:00 +29°C° 0 mm 2 m/S 686 mmHg 43%
    10:00 +30°C° 0 mm 2 m/S 686 mmHg 40%
    11:00 +32°C° 0 mm 2 m/S 686 mmHg 37%
    12:00 +34°C° 0 mm 2 m/S 685 mmHg 34%
    13:00 +34°C° 0,1 mm 2 m/S 685 mmHg 34%
    14:00 +35°C° 0,1 mm 2 m/S 685 mmHg 33%
    15:00 +35°C° 0,1 mm 2 m/S 685 mmHg 32%
    16:00 +35°C° 0,2 mm 2 m/S 685 mmHg 35%
    17:00 +34°C° 0,2 mm 3 m/S 685 mmHg 38%
    18:00 +33°C° 0,2 mm 3 m/S 685 mmHg 41%
    19:00 +30°C° 0,1 mm 3 m/S 685 mmHg 48%
    20:00 +28°C° 0,1 mm 3 m/S 685 mmHg 54%
    21:00 +26°C° 0,1 mm 3 m/S 685 mmHg 60%
    22:00 +25°C° 0 mm 3 m/S 685 mmHg 61%
    23:00 +24°C° 0 mm 2 m/S 685 mmHg 62%

    26 Juni, Dienstag

    Zeit Temperatur Niederschläge Wind Luftdruck Luftfeuchtigkeit
    00:00 +24°C° 0 mm 2 m/S 685 mmHg 63%
    01:00 +23°C° 0 mm 2 m/S 685 mmHg 63%
    02:00 +23°C° 0 mm 2 m/S 685 mmHg 63%
    03:00 +21°C° 0 mm 2 m/S 685 mmHg 64%
    04:00 +23°C° 0 mm 2 m/S 685 mmHg 63%
    05:00 +24°C° 0 mm 2 m/S 685 mmHg 62%
    06:00 +25°C° 0 mm 1 m/S 686 mmHg 60%
    07:00 +27°C° 0 mm 1 m/S 686 mmHg 54%
    08:00 +29°C° 0 mm 1 m/S 686 mmHg 47%
    09:00 +31°C° 0 mm 1 m/S 686 mmHg 41%
    10:00 +32°C° 0 mm 1 m/S 685 mmHg 38%
    11:00 +34°C° 0 mm 2 m/S 685 mmHg 35%
    12:00 +36°C° 0 mm 2 m/S 685 mmHg 32%
    13:00 +36°C° 0 mm 2 m/S 685 mmHg 31%
    14:00 +37°C° 0 mm 2 m/S 684 mmHg 29%
    15:00 +37°C° 0 mm 2 m/S 684 mmHg 28%
    16:00 +36°C° 0 mm 2 m/S 684 mmHg 31%
    17:00 +36°C° 0 mm 2 m/S 684 mmHg 34%
    18:00 +35°C° 0 mm 2 m/S 684 mmHg 36%
    19:00 +32°C° 0 mm 2 m/S 684 mmHg 43%
    20:00 +29°C° 0 mm 2 m/S 684 mmHg 50%
    21:00 +27°C° 0 mm 3 m/S 684 mmHg 57%
    22:00 +26°C° 0 mm 3 m/S 684 mmHg 59%
    23:00 +26°C° 0 mm 2 m/S 684 mmHg 60%

    27 Juni, Mittwoch

    Zeit Temperatur Niederschläge Wind Luftdruck Luftfeuchtigkeit
    00:00 +25°C° 0 mm 2 m/S 684 mmHg 61%
    01:00 +25°C° 0 mm 2 m/S 684 mmHg 61%
    02:00 +24°C° 0 mm 2 m/S 684 mmHg 61%
    03:00 +24°C° 0 mm 2 m/S 684 mmHg 61%
    04:00 +25°C° 0 mm 2 m/S 684 mmHg 60%
    05:00 +25°C° 0 mm 1 m/S 685 mmHg 59%
    06:00 +26°C° 0 mm 1 m/S 685 mmHg 58%
    07:00 +28°C° 0 mm 1 m/S 685 mmHg 50%
    08:00 +30°C° 0 mm 1 m/S 685 mmHg 43%
    09:00 +32°C° 0 mm 1 m/S 685 mmHg 36%
    10:00 +35°C° 0 mm 2 m/S 685 mmHg 33%
    11:00 +36°C° 0 mm 2 m/S 685 mmHg 30%
    12:00 +37°C° 0 mm 2 m/S 684 mmHg 27%
    13:00 +38°C° 0 mm 2 m/S 684 mmHg 25%
    14:00 +38°C° 0 mm 2 m/S 684 mmHg 24%
    15:00 +39°C° 0 mm 2 m/S 683 mmHg 23%
    16:00 +38°C° 0 mm 2 m/S 683 mmHg 26%
    17:00 +37°C° 0 mm 2 m/S 683 mmHg 29%
    18:00 +37°C° 0 mm 2 m/S 683 mmHg 33%
    19:00 +34°C° 0 mm 2 m/S 683 mmHg 40%
    20:00 +31°C° 0 mm 2 m/S 683 mmHg 47%
    21:00 +28°C° 0 mm 2 m/S 683 mmHg 54%
    22:00 +27°C° 0 mm 2 m/S 683 mmHg 57%
    23:00 +27°C° 0 mm 2 m/S 684 mmHg 60%
    Mehr zeigen